Showing default

COSMOS 2329, 23791

Orbit data source: Space-Track

COSMOS 2329, 23791 is a payload satellite owned by VKS (CIS) in LEO that was launched on Mon, 19 Feb 1996 UTC via a TSIKLON-3 launch vehicle from the Plesetsk Missile And Space Complex (PKMTR). Payload-class satellites include a variety of spacecraft equipped with specific instruments for various scientific and technological missions. These include communications satellites like Starlink; space stations such as the ISS; scientific satellites like the Hubble; Earth observation satellites from companies like Planet Labs, Umbra, and HawkEye 360; GPS; miniature CubeSats for education and research; and military/defense satellites.

Loading next visibility...
Identifier
23791, 1996-009E
Orbit
LEO
Country
Flag of CISCIS
Related business
Manufacturer
NPO PM
Mission
Non-operational Defense Communications
Bus & Motor
STRELA-3, Unknown motor
Mass
225 kg wet, 225 kg dry
Launch date (UTC)
1996-02-19 (31 years ago)
Launch vehicle
TSIKLON-3
Launch site
Plesetsk Missile And Space Complex (PKMTR)
Object type
Payload
Rocket body
Debris
Shape & HBR
Cyl + 1 Ant, 3.5 m
Radar Cross Section
1.583 m², Large (>1 m²)

Expand to show TLE details & history
Last TLE update: 15 hours ago

TLE from 15 hours ago
0 COSMOS 2329
1 23791U 96009E   26265.94826297  .00000036  00000-0  14363-3 0  9993
2 23791  82.5668 263.4726 0008333 197.2586 188.7978 12.61706716408696
Epoch: 2026-09-22T22:45Z
TLE epoch observation values (Epoch: 2026-09-22T22:45:29.920Z)
Latitude
25.83658°
Longitude
-76.10442°
Altitude
1,425.317 km
Speed
7.148 km/s
True Right ascension
17h 48m 18s
True Declination
25° 42' 49"
Sunlit
Object was in daylight at epoch
Visualization orbit readout
Latitude
Unknown
Longitude
Unknown
Altitude
Unknown
Speed
Unknown
Apparent Right ascension
Unknown
Apparent Declination
Unknown
Sunlit
N/A
Visualization observer readout
Local Sidereal Time
07:01:43
Azimuth
Unknown
Elevation
Unknown
Doppler factor
Unknown
Orbital elements
Apogee altitude
1,419.722 km
Perigee altitude
1,406.737 km
Semi-major axis
7,791.367 km
Eccentricity
0.00083
Inclination
82.5668°
RAAN
263.4726°
Arg. of periapsis
197.2586°
True anomaly
188.78321°
Mean anomaly
188.7978°
Eccentric anomaly
188.7905°
Mean motion
3.1559 °/min
Orbital period
114.07 mins
BSTAR
0.00014363
Loading maneuver chart data...
Computing Atmospheric mass density...
Loading historical data...
Loading historical data...
Loading historical data...
Loading historical data...
Loading historical data...
Loading historical data...
Loading historical data...

Documentation

Showing up to 5 results
|